JP3QZN-13 Weather Reports


time (UTC)temp
C
wind
direction
speed
KPH
gust
KPH
rain 1hr
cm
rain 24hr
cm
rain mn
cm
humidity
%
barometer
mb
20260509110028 21 292 0.0 0.0 0.00 0.00 0.00 41 1019.3
20260509103027 22 337 4.8 0.0 0.00 0.00 0.00 38 1019.2
20260509100027 23 315 1.6 0.0 0.00 0.00 0.00 36 1018.7
20260509093026 24 292 0.0 0.0 0.00 0.00 0.00 35 1018.5
20260509090025 25 315 8.0 0.0 0.00 0.00 0.00 33 1018.2
20260509083025 26 0 8.0 0.0 0.00 0.00 0.00 34 1018.0
20260509080024 26 315 3.2 0.0 0.00 0.00 0.00 33 1017.9
20260509073023 25 292 14.5 0.0 0.00 0.00 0.00 32 1017.7
20260509070022 25 292 8.0 0.0 0.00 0.00 0.00 33 1017.5
20260509063021 26 247 0.0 0.0 0.00 0.00 0.00 33 1017.9
20260509060020 26 292 3.2 0.0 0.00 0.00 0.00 32 1017.9
20260509053020 26 225 0.0 0.0 0.00 0.00 0.00 31 1018.0
20260509043019 26 337 6.4 0.0 0.00 0.00 0.00 35 1018.6
20260509040018 25 270 4.8 0.0 0.00 0.00 0.00 35 1019.1
20260509033017 26 270 9.7 0.0 0.00 0.00 0.00 34 1019.3
20260509030016 26 292 12.9 0.0 0.00 0.00 0.00 35 1019.4
20260509023015 26 292 3.2 0.0 0.00 0.00 0.00 34 1019.9
20260509020014 26 337 4.8 0.0 0.00 0.00 0.00 36 1020.5
20260509013014 25 225 3.2 0.0 0.00 0.00 0.00 36 1020.9
20260509010013 25 225 11.3 0.0 0.00 0.00 0.00 37 1021.6
20260509003012 24 270 4.8 0.0 0.00 0.00 0.00 38 1022.0
20260509000030 22 202 0.0 0.0 0.00 0.00 0.00 42 1022.4
20260508233029 20 292 3.2 0.0 0.00 0.00 0.00 46 1023.0
20260508230028 20 337 8.0 0.0 0.00 0.00 0.00 48 1023.6
20260508223028 17 315 6.4 0.0 0.00 0.00 0.00 51 1023.8
20260508220027 16 315 3.2 0.0 0.00 0.00 0.00 52 1024.1
20260508215628 16 67 0.0 0.0 0.00 0.00 0.00 53 1024.2
20260508215556 18 337 3.2 0.0 0.00 0.00 0.00 48 1015.5
20260508130009 18 337 3.2 0.0 0.00 0.00 0.00 48 1015.5
20260508123008 18 225 0.0 0.0 0.00 0.00 0.00 49 1015.1
20260508120007 18 292 16.1 0.0 0.00 0.00 0.00 51 1014.2
20260508113006 19 337 12.9 0.0 0.00 0.00 0.00 54 1013.4